Location: Arrodets-la-Barthe
(43.0306°N, 0.2829°E)
Time: 20:52:08
(UTC+00:00)

FO-29 - Pass Details

Date: 02 April 2023
Orbit: 799 x 1322 km, 98.5° (Epoch: 08 June)

Event Time Altitude Azimuth Distance (km) Brightness Sun altitude
Rises 03:04:08 0° 31° (NNE) 4,230 13.9 -27.0°
Reaches altitude 10° 03:09:12 10° 59° (ENE) 3,155 13.2 -26.3°
Maximum altitude 03:11:49 12° 81° (E) 2,932 12.8 -25.9°
Drops below altitude 10° 03:14:20 10° 103° (ESE) 3,022 12.6 -25.5°
Sets 03:18:53 0° 132° (SE) 3,844 12.8 -24.8°
